{"data":{"norad_id":66784,"intl_designator":"2025-276DY","name":"LEMUR-2-TARTIFLETTE","alt_names":[],"object_type":"PAYLOAD","status":"ACTIVE","operator":null,"country":"US","launch_date":"2025-11-28","launch_site_code":"AFWTR","launch_vehicle":null,"mission":null,"orbit_class":"UNKNOWN","rcs_meters":null,"size_class":null,"mass_kg":null,"dimensions":null,"purposes":["earth_obs"],"wikipedia_slug":null,"has_3d_model":false,"image_url":null,"decayed_at":null,"tle_current":{"epoch":"2026-09-19T23:49:08.688288Z","epoch_age_seconds":58333,"freshness":"FRESH","line1":"1 66784U 25276DY  26262.99246167  .00003087  00000+0  25312-3 0  9998","line2":"2 66784  97.5141 330.4104 0015796 172.0975 188.0501 14.99861964 44406","mean_motion":14.99861964,"eccentricity":0.0015796,"inclination_deg":97.5141,"raan_deg":330.4104,"arg_perigee_deg":172.0975,"mean_anomaly_deg":188.0501,"bstar":0.00025312,"rev_number":4440,"period_min":96.008835117043,"perigee_km":556.35140374644,"apogee_km":578.29349924561,"semimajor_km":6945.459451496,"source":"CELESTRAK","updated_at":"2026-09-20T09:00:34.880409Z"}}}